DW2973 Weather Reports


Display with metric or nautical units.
time (UTC)temp
F
wind
direction
speed
MPH
gust
MPH
rain 1hr
in
rain 24hr
in
rain mn
in
humidity
%
barometer
mb
20260508200110 47 194 0.0 0.0 0.00 0.00 0.00 62 1023.3
20260508194555 48 194 0.0 0.0 0.00 0.00 0.00 61 1023.2
20260508193132 50 194 0.0 0.0 0.00 0.00 0.00 60 1023.0
20260508191554 51 194 0.0 0.0 0.00 0.00 0.00 59 1022.8
20260508190054 53 194 0.0 0.0 0.00 0.00 0.00 56 1022.8
20260508184556 54 194 0.0 0.0 0.00 0.00 0.00 52 1022.6
20260508183108 56 194 0.0 0.0 0.00 0.00 0.00 50 1022.5
20260508181602 56 194 0.0 0.0 0.00 0.00 0.00 48 1022.4
20260508180048 57 191 0.0 0.0 0.00 0.00 0.00 45 1022.2
20260508174551 58 192 0.0 0.0 0.00 0.00 0.00 43 1022.2
20260508173046 59 237 0.0 0.0 0.00 0.00 0.00 40 1022.1
20260508171547 61 236 0.0 0.0 0.00 0.00 0.00 36 1022.1
20260508170053 63 173 0.0 0.0 0.00 0.00 0.00 33 1021.9
20260508164548 64 191 0.0 0.0 0.00 0.00 0.00 33 1021.8
20260508163045 64 175 0.0 0.0 0.00 0.00 0.00 32 1022.0
20260508161546 65 74 0.0 0.0 0.00 0.00 0.00 27 1021.8
20260508160044 65 250 0.0 0.0 0.00 0.00 0.00 29 1021.8
20260508154605 65 172 0.0 0.0 0.00 0.00 0.00 26 1021.7
20260508153043 66 155 0.0 0.0 0.00 0.00 0.00 24 1021.8
20260508151540 65 142 0.0 0.0 0.00 0.00 0.00 25 1021.7
20260508150040 65 153 0.0 0.0 0.00 0.00 0.00 25 1021.8
20260508144549 66 202 0.0 0.0 0.00 0.00 0.00 24 1022.0
20260508143036 65 133 0.0 0.0 0.00 0.00 0.00 28 1022.1
20260508141536 65 132 0.0 0.0 0.00 0.00 0.00 28 1022.0
20260508140036 67 138 0.0 0.0 0.00 0.00 0.00 28 1021.9
20260508134545 66 141 0.0 0.0 0.00 0.00 0.00 29 1022.1
20260508133046 65 157 0.0 0.0 0.00 0.00 0.00 37 1022.1
20260508131532 64 241 2.0 0.0 0.00 0.00 0.00 36 1022.1
20260508130034 66 99 0.0 0.0 0.00 0.00 0.00 33 1022.3
20260508124536 66 194 0.0 0.0 0.00 0.00 0.00 35 1022.1
20260508123043 65 264 0.0 0.0 0.00 0.00 0.00 34 1022.2
20260508121530 65 184 1.0 0.0 0.00 0.00 0.00 35 1022.2
20260508120027 64 204 0.0 0.0 0.00 0.00 0.00 35 1022.5
20260508114525 64 238 1.0 0.0 0.00 0.00 0.00 35 1022.3
20260508113024 63 231 0.0 0.0 0.00 0.00 0.00 34 1022.5
20260508111532 63 236 2.0 0.0 0.00 0.00 0.00 35 1022.5
20260508110025 64 144 1.0 0.0 0.00 0.00 0.00 36 1022.5
20260508104522 63 215 1.0 0.0 0.00 0.00 0.00 36 1022.5
20260508103022 63 196 0.0 0.0 0.00 0.00 0.00 39 1022.4
20260508101519 63 206 1.0 0.0 0.00 0.00 0.00 43 1022.3
20260508100019 64 182 1.0 0.0 0.00 0.00 0.00 44 1022.3
20260508094517 64 206 1.0 0.0 0.00 0.00 0.00 49 1022.4
20260508093018 63 192 0.0 0.0 0.00 0.00 0.00 48 1022.2
20260508091513 63 184 0.0 0.0 0.00 0.00 0.00 49 1022.2
20260508090012 62 164 0.0 0.0 0.00 0.00 0.00 53 1022.1
20260508084505 60 28 0.0 0.0 0.00 0.00 0.00 57 1022.2
20260508083007 59 120 0.0 0.0 0.00 0.00 0.00 61 1022.1
20260508081502 59 129 0.0 0.0 0.00 0.00 0.00 62 1022.1
20260508080058 58 148 0.0 0.0 0.00 0.00 0.00 63 1022.0
20260508074553 56 138 0.0 0.0 0.00 0.00 0.00 67 1021.8
20260508073107 54 141 0.0 0.0 0.00 0.00 0.00 71 1021.7
20260508071546 53 125 0.0 0.0 0.00 0.00 0.00 73 1021.6
20260508070046 52 115 0.0 0.0 0.00 0.00 0.00 78 1021.6
20260508064538 50 117 0.0 0.0 0.00 0.00 0.00 87 1021.4
20260508063038 50 25 0.0 0.0 0.00 0.00 0.00 92 1021.2
20260508061540 49 25 0.0 0.0 0.00 0.00 0.00 94 1021.0
20260508060029 47 25 0.0 0.0 0.00 0.00 0.00 94 1021.0
20260508054525 44 25 0.0 0.0 0.00 0.00 0.00 94 1021.0
20260508053022 43 25 0.0 0.0 0.00 0.00 0.00 93 1020.9
20260508051521 42 25 0.0 0.0 0.00 0.00 0.00 93 1021.0
20260508050020 42 25 0.0 0.0 0.00 0.00 0.00 93 1020.9
20260508044519 42 25 0.0 0.0 0.00 0.00 0.00 93 1020.8
20260508043019 41 25 0.0 0.0 0.00 0.00 0.00 93 1020.7
20260508041520 41 25 0.0 0.0 0.00 0.00 0.00 92 1020.6
20260508040016 41 25 0.0 0.0 0.00 0.00 0.00 92 1020.5
20260508034517 41 25 0.0 0.0 0.00 0.00 0.00 92 1020.5
20260508033014 41 25 0.0 0.0 0.00 0.00 0.00 92 1020.5
20260508031514 41 25 0.0 0.0 0.00 0.00 0.00 91 1020.4
20260508030013 41 25 0.0 0.0 0.00 0.00 0.00 92 1020.4
20260508024531 41 25 0.0 0.0 0.00 0.00 0.00 91 1020.1
20260508023010 40 25 0.0 0.0 0.00 0.00 0.00 91 1020.0
20260508021510 40 25 0.0 0.0 0.00 0.00 0.00 90 1020.0
20260508020010 41 25 0.0 0.0 0.00 0.00 0.00 90 1020.0
20260508014508 41 25 0.0 0.0 0.00 0.00 0.00 90 1020.0
20260508013007 40 25 0.0 0.0 0.00 0.00 0.00 89 1019.8
20260508010007 40 25 0.0 0.0 0.00 0.00 0.00 87 1019.7
20260508004500 40 25 0.0 0.0 0.00 0.00 0.00 87 1019.6
20260508003058 41 25 0.0 0.0 0.00 0.00 0.00 87 1019.6
20260508001557 42 25 0.0 0.0 0.00 0.00 0.00 87 1019.6
20260508000055 42 25 0.0 0.0 0.00 0.00 0.00 86 1019.6
20260507234557 42 25 0.0 0.0 0.00 0.00 0.00 86 1019.5
20260507233058 43 25 0.0 0.0 0.00 0.00 0.00 86 1019.5
20260507231551 43 25 0.0 0.0 0.00 0.00 0.00 85 1019.4
20260507230105 43 25 0.0 0.0 0.00 0.00 0.00 84 1019.4
20260507224553 43 25 0.0 0.0 0.00 0.00 0.00 84 1019.3
20260507223046 43 25 0.0 0.0 0.00 0.00 0.00 85 1019.2
20260507221547 43 25 0.0 0.0 0.00 0.00 0.00 85 1019.2
20260507220050 43 25 0.0 0.0 0.00 0.00 0.00 85 1019.2
20260507214544 43 25 0.0 0.0 0.00 0.00 0.00 84 1019.2
20260507213044 44 25 0.0 0.0 0.00 0.00 0.00 84 1019.1
20260507211543 44 25 0.0 0.0 0.00 0.00 0.00 84 1019.0